Meath Environmental Platform

Observations

Time Sensor AQI SAQ Temp °C Hum % Pres Pa CO μg/m³ H₂S μg/m³ NO μg/m³ NO₂ μg/m³ O₃ μg/m³ SO₂ μg/m³ CO₂e PPM VOC PPM PM1 μg/m³ PM2.5 μg/m³ PM4 μg/m³ PM10 μg/m³ TPS µm
Thursday 13 August 2026
12:07 Trim Patrick St 2 31.2 48 69,501 0 0 0.66 12.62 60.73 16.96 2.86 7.27 8
12:06 Trim Market St 2 32.7 45 63,898 0 0 0.49 13.33 60.46 0 0.71 2.65 4.43
12:06 Trim Patrick St 2 31 48 69,521 0 1.71 0.66 13.47 69.06 16.73 2 7.27 8
12:05 Trim Market St 2 32.5 46 63,723 0 0 0.49 12.66 44.78 0 0.71 3.16 4.44
12:05 Trim Patrick St 2 30.9 48 69,515 0 0 0.66 13.39 66.01 16.4 3.71 8.81 9.7
12:04 Trim Market St 2 32.2 46 63,464 0.09 0 0.59 12.61 49.02 0 0.71 3.15 3.46
12:04 Trim Patrick St 2 30.8 49 69,505 0 0 0.69 12.65 59.26 15.67 3.71 8.01 8.82
12:03 Trim Market St 2 32.1 46 63,225 0 0 0.53 13.24 55.94 0 0.71 3.14 3.46
12:03 Trim Patrick St 2 30.7 49 69,495 0 0 0.71 12.78 58.98 15.85 2 7.24 7.96
12:02 Trim Market St 2 32 46 63,088 0 0 0.55 12.77 56.09 0 0 2.1 2.31
12:02 Trim Patrick St 2 30.7 50 69,507 0 1.09 0.72 13.06 61.06 16.58 2.86 7.96 8.76
12:01 Trim Market St 2 31.9 46 63,043 0.08 0 0.61 17.28 56.33 0 0.71 3.14 3.45
12:01 Trim Patrick St 2 30.6 49 69,523 0 0 0.67 13.15 63.81 16.46 2 7.25 7.97
12:00 Trim Market St 2 31.8 46 63,162 0.15 0 0.61 12.67 43.58 0 0.71 3.14 3.45
12:00 Trim Patrick St 2 30.6 49 69,517 0 1.05 0.67 13.37 61.41 16.15 2 6.48 7.13
11:59 Trim Market St 2 31.8 46 63,041 0 0 0.56 13.23 55.73 0 0.71 4.17 5.22
11:59 Trim Patrick St 2 30.6 49 69,539 0 0 0.67 13.43 64.04 16.28 2.86 8.77 9.64
11:58 Trim Market St 2 31.7 46 62,911 0 0 0.64 13.16 36.69 0 1.43 3.64 4.46
11:58 Trim Patrick St 2 30.6 49 69,543 0 0 0.66 12.6 62.76 16.26 2.86 7.98 8.78
11:57 Trim Market St 2 31.7 47 62,668 0 0 0.57 12.68 59.91 0 0.71 3.11 3.42